| time (UTC) | temp C | wind direction | speed KPH | gust KPH | rain 1hr cm | rain 24hr cm | rain mn cm | humidity % | barometer mb |
| 20260510081623 | 8 | 200 | 6.4 | 6.4 | 0.00 | 0.00 | 0.00 | 96 | 1015.0 |
| 20260510081119 | 7 | 186 | 0.0 | 4.8 | 0.00 | 0.00 | 0.00 | 97 | 1014.9 |
| 20260510080613 | 7 | 134 | 1.6 | 3.2 | 0.00 | 0.00 | 0.00 | 97 | 1014.9 |
| 20260510080110 | 7 | 125 | 0.0 | 3.2 | 0.00 | 0.00 | 0.00 | 96 | 1015.0 |
| 20260510075602 | 8 | 250 | 1.6 | 1.6 | 0.00 | 0.00 | 0.00 | 96 | 1015.0 |
| 20260510075058 | 8 | 106 | 4.8 | 6.4 | 0.00 | 0.00 | 0.00 | 96 | 1015.0 |
| 20260510074556 | 8 | 113 | 6.4 | 9.7 | 0.00 | 0.00 | 0.00 | 96 | 1015.0 |
| 20260510074051 | 7 | 149 | 1.6 | 3.2 | 0.00 | 0.00 | 0.00 | 97 | 1014.9 |
| 20260510073548 | 7 | 136 | 1.6 | 6.4 | 0.00 | 0.00 | 0.00 | 96 | 1014.8 |
| 20260510073045 | 7 | 139 | 1.6 | 3.2 | 0.00 | 0.00 | 0.00 | 96 | 1014.7 |
| 20260510072541 | 7 | 114 | 1.6 | 4.8 | 0.00 | 0.00 | 0.00 | 97 | 1014.7 |
| 20260510072037 | 7 | 122 | 1.6 | 4.8 | 0.00 | 0.00 | 0.00 | 97 | 1014.8 |
| 20260510071533 | 7 | 239 | 3.2 | 4.8 | 0.00 | 0.00 | 0.00 | 96 | 1015.0 |
| 20260510071032 | 7 | 154 | 3.2 | 3.2 | 0.00 | 0.00 | 0.00 | 96 | 1014.7 |
| 20260510070528 | 7 | 200 | 3.2 | 6.4 | 0.00 | 0.00 | 0.00 | 96 | 1014.9 |
| 20260510070025 | 7 | 121 | 3.2 | 4.8 | 0.00 | 0.00 | 0.00 | 96 | 1014.9 |
| 20260510065521 | 7 | 229 | 0.0 | 6.4 | 0.00 | 0.00 | 0.00 | 97 | 1014.8 |
| 20260510065017 | 7 | 187 | 0.0 | 3.2 | 0.00 | 0.00 | 0.00 | 95 | 1014.9 |
| 20260510064515 | 7 | 112 | 3.2 | 6.4 | 0.00 | 0.00 | 0.00 | 96 | 1014.8 |
| 20260510064011 | 7 | 135 | 1.6 | 4.8 | 0.00 | 0.00 | 0.00 | 96 | 1015.0 |
| 20260510063508 | 7 | 153 | 1.6 | 4.8 | 0.00 | 0.00 | 0.00 | 96 | 1014.9 |
| 20260510063005 | 7 | 208 | 3.2 | 11.3 | 0.00 | 0.00 | 0.00 | 96 | 1014.9 |
| 20260510062501 | 7 | 202 | 0.0 | 4.8 | 0.00 | 0.00 | 0.00 | 95 | 1014.9 |
| 20260510061955 | 8 | 194 | 4.8 | 4.8 | 0.00 | 0.00 | 0.00 | 94 | 1014.7 |
| 20260510061452 | 7 | 209 | 1.6 | 4.8 | 0.00 | 0.00 | 0.00 | 95 | 1014.8 |
| 20260510060949 | 7 | 213 | 0.0 | 1.6 | 0.00 | 0.00 | 0.00 | 95 | 1014.9 |
| 20260510060446 | 8 | 141 | 1.6 | 1.6 | 0.00 | 0.00 | 0.00 | 94 | 1014.8 |
| 20260510055942 | 8 | 140 | 3.2 | 3.2 | 0.00 | 0.00 | 0.00 | 94 | 1015.1 |
| 20260510055438 | 8 | 129 | 3.2 | 3.2 | 0.00 | 0.00 | 0.00 | 95 | 1015.0 |
| 20260510054936 | 8 | 128 | 1.6 | 3.2 | 0.00 | 0.00 | 0.00 | 95 | 1015.0 |
| 20260510054432 | 7 | 150 | 3.2 | 3.2 | 0.00 | 0.00 | 0.00 | 95 | 1015.0 |
| 20260510053927 | 7 | 152 | 1.6 | 3.2 | 0.00 | 0.00 | 0.00 | 94 | 1015.3 |
| 20260510053422 | 7 | 135 | 3.2 | 3.2 | 0.00 | 0.00 | 0.00 | 94 | 1015.4 |
| 20260510052919 | 7 | 145 | 3.2 | 3.2 | 0.00 | 0.00 | 0.00 | 94 | 1015.3 |
| 20260510052415 | 8 | 112 | 0.0 | 3.2 | 0.00 | 0.00 | 0.00 | 91 | 1015.1 |
| 20260510051911 | 8 | 131 | 1.6 | 4.8 | 0.00 | 0.00 | 0.00 | 91 | 1015.3 |
| 20260510051408 | 8 | 127 | 3.2 | 4.8 | 0.00 | 0.00 | 0.00 | 91 | 1015.4 |
| 20260510050904 | 8 | 131 | 3.2 | 4.8 | 0.00 | 0.00 | 0.00 | 91 | 1015.3 |
| 20260510050401 | 8 | 139 | 3.2 | 4.8 | 0.00 | 0.00 | 0.00 | 90 | 1015.4 |
| 20260510045858 | 8 | 129 | 1.6 | 3.2 | 0.00 | 0.00 | 0.00 | 90 | 1015.4 |
| 20260510045355 | 8 | 121 | 6.4 | 6.4 | 0.00 | 0.00 | 0.00 | 90 | 1015.4 |
| 20260510044852 | 8 | 136 | 4.8 | 4.8 | 0.00 | 0.00 | 0.00 | 89 | 1015.5 |
| 20260510044349 | 8 | 114 | 4.8 | 6.4 | 0.00 | 0.00 | 0.00 | 89 | 1015.4 |
| 20260510043845 | 9 | 126 | 4.8 | 4.8 | 0.00 | 0.00 | 0.00 | 88 | 1015.3 |
| 20260510043341 | 9 | 95 | 4.8 | 4.8 | 0.00 | 0.00 | 0.00 | 88 | 1015.4 |
| 20260510042839 | 9 | 116 | 4.8 | 6.4 | 0.00 | 0.00 | 0.00 | 88 | 1015.1 |
| 20260510042335 | 9 | 124 | 3.2 | 4.8 | 0.00 | 0.00 | 0.00 | 88 | 1015.3 |
| 20260510041831 | 9 | 140 | 1.6 | 4.8 | 0.00 | 0.00 | 0.00 | 88 | 1015.0 |
| 20260510041328 | 9 | 115 | 1.6 | 6.4 | 0.00 | 0.00 | 0.00 | 87 | 1014.9 |
| 20260510040825 | 9 | 84 | 4.8 | 6.4 | 0.00 | 0.00 | 0.00 | 87 | 1014.8 |
| 20260510040322 | 9 | 105 | 3.2 | 9.7 | 0.00 | 0.00 | 0.00 | 87 | 1014.8 |
| 20260510035818 | 9 | 129 | 3.2 | 4.8 | 0.00 | 0.00 | 0.00 | 87 | 1014.9 |
| 20260510035314 | 9 | 127 | 1.6 | 6.4 | 0.00 | 0.00 | 0.00 | 86 | 1014.8 |
| 20260510034810 | 9 | 103 | 3.2 | 6.4 | 0.00 | 0.00 | 0.00 | 85 | 1014.6 |
| 20260510034308 | 10 | 101 | 4.8 | 4.8 | 0.00 | 0.00 | 0.00 | 85 | 1014.7 |
| 20260510033804 | 10 | 77 | 3.2 | 6.4 | 0.00 | 0.00 | 0.00 | 85 | 1014.5 |
| 20260510033301 | 10 | 143 | 3.2 | 3.2 | 0.00 | 0.00 | 0.00 | 85 | 1014.8 |
| 20260510032758 | 10 | 142 | 1.6 | 3.2 | 0.00 | 0.00 | 0.00 | 84 | 1014.7 |
| 20260510032254 | 10 | 53 | 1.6 | 4.8 | 0.00 | 0.00 | 0.00 | 83 | 1014.7 |
| 20260510031749 | 10 | 105 | 6.4 | 9.7 | 0.00 | 0.00 | 0.00 | 83 | 1014.5 |
| 20260510031245 | 10 | 143 | 3.2 | 4.8 | 0.00 | 0.00 | 0.00 | 84 | 1014.6 |
| 20260510030744 | 10 | 82 | 3.2 | 9.7 | 0.00 | 0.00 | 0.00 | 82 | 1014.4 |
| 20260510030242 | 10 | 95 | 3.2 | 4.8 | 0.00 | 0.00 | 0.00 | 82 | 1014.6 |
| 20260510025739 | 10 | 128 | 3.2 | 4.8 | 0.00 | 0.00 | 0.00 | 82 | 1014.5 |
| 20260510025237 | 10 | 124 | 3.2 | 3.2 | 0.00 | 0.00 | 0.00 | 82 | 1014.3 |
| 20260510024734 | 10 | 113 | 3.2 | 3.2 | 0.00 | 0.00 | 0.00 | 82 | 1014.5 |
| 20260510024230 | 10 | 130 | 1.6 | 3.2 | 0.00 | 0.00 | 0.00 | 82 | 1014.5 |
| 20260510023726 | 10 | 138 | 1.6 | 3.2 | 0.00 | 0.00 | 0.00 | 82 | 1014.5 |
| 20260510023223 | 10 | 129 | 1.6 | 3.2 | 0.00 | 0.00 | 0.00 | 83 | 1014.5 |
| 20260510022719 | 10 | 127 | 1.6 | 6.4 | 0.00 | 0.00 | 0.00 | 81 | 1014.3 |
| 20260510022219 | 10 | 173 | 1.6 | 3.2 | 0.00 | 0.00 | 0.00 | 82 | 1014.5 |
| 20260510021714 | 10 | 211 | 0.0 | 3.2 | 0.00 | 0.00 | 0.00 | 82 | 1014.5 |
| 20260510021212 | 10 | 180 | 1.6 | 3.2 | 0.00 | 0.00 | 0.00 | 82 | 1014.2 |
| 20260510020707 | 10 | 202 | 1.6 | 3.2 | 0.00 | 0.00 | 0.00 | 82 | 1014.2 |
| 20260510020202 | 11 | 135 | 1.6 | 1.6 | 0.00 | 0.00 | 0.00 | 80 | 1014.1 |
| 20260510015658 | 11 | 134 | 0.0 | 0.0 | 0.00 | 0.00 | 0.00 | 78 | 1014.0 |
| 20260510015155 | 11 | 134 | 1.6 | 1.6 | 0.00 | 0.00 | 0.00 | 77 | 1014.1 |
| 20260510014655 | 11 | 135 | 1.6 | 1.6 | 0.00 | 0.00 | 0.00 | 77 | 1013.9 |
| 20260510014154 | 12 | 134 | 0.0 | 1.6 | 0.00 | 0.00 | 0.00 | 75 | 1013.9 |
| 20260510013654 | 11 | 150 | 0.0 | 1.6 | 0.00 | 0.00 | 0.00 | 76 | 1013.8 |
| 20260510013150 | 12 | 203 | 3.2 | 4.8 | 0.00 | 0.00 | 0.00 | 75 | 1013.4 |
| 20260510012649 | 12 | 124 | 1.6 | 3.2 | 0.00 | 0.00 | 0.00 | 74 | 1013.2 |
| 20260510012145 | 12 | 135 | 0.0 | 3.2 | 0.00 | 0.00 | 0.00 | 72 | 1013.3 |
| 20260510011640 | 12 | 131 | 3.2 | 3.2 | 0.00 | 0.00 | 0.00 | 72 | 1013.1 |
| 20260510011136 | 12 | 131 | 1.6 | 3.2 | 0.00 | 0.00 | 0.00 | 71 | 1013.0 |
| 20260510010632 | 12 | 131 | 1.6 | 3.2 | 0.00 | 0.00 | 0.00 | 71 | 1013.1 |
| 20260510010130 | 12 | 131 | 3.2 | 3.2 | 0.00 | 0.00 | 0.00 | 71 | 1013.1 |
| 20260510005625 | 13 | 131 | 0.0 | 0.0 | 0.00 | 0.00 | 0.00 | 70 | 1013.0 |
| 20260510005123 | 13 | 131 | 1.6 | 3.2 | 0.00 | 0.00 | 0.00 | 70 | 1012.7 |
| 20260510004621 | 13 | 131 | 0.0 | 1.6 | 0.00 | 0.00 | 0.00 | 67 | 1012.6 |
| 20260510004119 | 13 | 131 | 0.0 | 1.6 | 0.00 | 0.00 | 0.00 | 67 | 1012.7 |
| 20260510003615 | 14 | 137 | 1.6 | 1.6 | 0.00 | 0.00 | 0.00 | 65 | 1012.5 |
| 20260510003111 | 14 | 142 | 3.2 | 3.2 | 0.00 | 0.00 | 0.00 | 65 | 1012.3 |
| 20260510002606 | 14 | 144 | 1.6 | 3.2 | 0.00 | 0.00 | 0.00 | 63 | 1012.4 |
| 20260510002103 | 15 | 275 | 0.0 | 3.2 | 0.00 | 0.00 | 0.00 | 65 | 1012.5 |
| 20260510001600 | 15 | 121 | 1.6 | 3.2 | 0.00 | 0.00 | 0.00 | 63 | 1012.1 |
| 20260510001059 | 15 | 110 | 1.6 | 3.2 | 0.00 | 0.00 | 0.00 | 61 | 1012.1 |
| 20260510000553 | 15 | 167 | 0.0 | 1.6 | 0.00 | 0.00 | 0.00 | 59 | 1012.4 |
| 20260510000050 | 15 | 229 | 0.0 | 1.6 | 0.00 | 0.00 | 0.00 | 60 | 1012.4 |
| 20260509235547 | 16 | 252 | 0.0 | 1.6 | 0.00 | 0.00 | 0.00 | 59 | 1012.4 |
| 20260509235044 | 16 | 253 | 0.0 | 3.2 | 0.00 | 0.00 | 0.00 | 56 | 1012.0 |
| 20260509234540 | 16 | 179 | 3.2 | 4.8 | 0.00 | 0.00 | 0.00 | 54 | 1012.1 |
| 20260509234038 | 17 | 262 | 3.2 | 4.8 | 0.00 | 0.00 | 0.00 | 52 | 1011.9 |
| 20260509233535 | 17 | 257 | 3.2 | 4.8 | 0.00 | 0.00 | 0.00 | 53 | 1012.0 |
| 20260509233032 | 18 | 279 | 3.2 | 4.8 | 0.00 | 0.00 | 0.00 | 50 | 1011.8 |
| 20260509232529 | 18 | 286 | 4.8 | 6.4 | 0.00 | 0.00 | 0.00 | 50 | 1012.0 |
| 20260509232025 | 17 | 254 | 3.2 | 4.8 | 0.00 | 0.00 | 0.00 | 51 | 1011.9 |
| 20260509231522 | 17 | 268 | 1.6 | 6.4 | 0.00 | 0.00 | 0.00 | 51 | 1012.0 |
| 20260509231020 | 18 | 278 | 4.8 | 9.7 | 0.00 | 0.00 | 0.00 | 49 | 1012.0 |
| 20260509230517 | 18 | 262 | 6.4 | 9.7 | 0.00 | 0.00 | 0.00 | 49 | 1011.9 |
| 20260509230014 | 18 | 296 | 3.2 | 6.4 | 0.00 | 0.00 | 0.00 | 49 | 1012.0 |
| 20260509225509 | 18 | 50 | 0.0 | 4.8 | 0.00 | 0.00 | 0.00 | 48 | 1012.1 |
| 20260509225005 | 18 | 20 | 1.6 | 3.2 | 0.00 | 0.00 | 0.00 | 47 | 1012.1 |
| 20260509224500 | 18 | 64 | 1.6 | 3.2 | 0.00 | 0.00 | 0.00 | 48 | 1012.1 |
| 20260509223957 | 18 | 96 | 3.2 | 4.8 | 0.00 | 0.00 | 0.00 | 51 | 1011.9 |
| 20260509223449 | 20 | 225 | 4.8 | 6.4 | 0.00 | 0.00 | 0.00 | 46 | 1012.1 |
| 20260509222946 | 19 | 122 | 1.6 | 3.2 | 0.00 | 0.00 | 0.00 | 48 | 1011.9 |
| 20260509222442 | 20 | 259 | 9.7 | 11.3 | 0.00 | 0.00 | 0.00 | 49 | 1012.3 |
| 20260509221937 | 18 | 270 | 8.0 | 9.7 | 0.00 | 0.00 | 0.00 | 50 | 1012.0 |
| 20260509221434 | 18 | 238 | 3.2 | 12.9 | 0.00 | 0.00 | 0.00 | 52 | 1012.3 |
| 20260509220930 | 17 | 221 | 0.0 | 3.2 | 0.00 | 0.00 | 0.00 | 48 | 1012.3 |
| 20260509220426 | 17 | 283 | 3.2 | 3.2 | 0.00 | 0.00 | 0.00 | 54 | 1012.4 |
| 20260509215922 | 17 | 299 | 4.8 | 6.4 | 0.00 | 0.00 | 0.00 | 50 | 1012.3 |
| 20260509215418 | 17 | 180 | 3.2 | 6.4 | 0.00 | 0.00 | 0.00 | 49 | 1012.4 |
| 20260509214915 | 17 | 276 | 6.4 | 9.7 | 0.00 | 0.00 | 0.00 | 51 | 1012.4 |
| 20260509214413 | 17 | 291 | 4.8 | 11.3 | 0.00 | 0.00 | 0.00 | 49 | 1012.1 |
| 20260509213909 | 17 | 336 | 8.0 | 11.3 | 0.00 | 0.00 | 0.00 | 49 | 1012.1 |
| 20260509213405 | 18 | 29 | 8.0 | 14.5 | 0.00 | 0.00 | 0.00 | 49 | 1012.0 |
| 20260509212903 | 18 | 241 | 4.8 | 4.8 | 0.00 | 0.00 | 0.00 | 50 | 1012.4 |
| 20260509212400 | 18 | 343 | 1.6 | 6.4 | 0.00 | 0.00 | 0.00 | 47 | 1012.0 |
| 20260509211856 | 18 | 16 | 3.2 | 6.4 | 0.00 | 0.00 | 0.00 | 51 | 1012.0 |
| 20260509211352 | 17 | 120 | 0.0 | 1.6 | 0.00 | 0.00 | 0.00 | 53 | 1011.9 |
| 20260509210849 | 17 | 41 | 6.4 | 9.7 | 0.00 | 0.00 | 0.00 | 49 | 1011.8 |
| 20260509210347 | 17 | 306 | 3.2 | 12.9 | 0.00 | 0.00 | 0.00 | 49 | 1011.8 |
| 20260509205846 | 18 | 289 | 3.2 | 6.4 | 0.00 | 0.00 | 0.00 | 48 | 1011.7 |
| 20260509205340 | 18 | 243 | 3.2 | 6.4 | 0.00 | 0.00 | 0.00 | 46 | 1011.5 |
| 20260509204837 | 18 | 316 | 1.6 | 6.4 | 0.00 | 0.00 | 0.00 | 50 | 1011.6 |
| 20260509204333 | 18 | 18 | 3.2 | 4.8 | 0.00 | 0.00 | 0.00 | 45 | 1011.5 |
| 20260509203830 | 18 | 33 | 3.2 | 11.3 | 0.00 | 0.00 | 0.00 | 45 | 1011.4 |
| 20260509203327 | 18 | 275 | 3.2 | 6.4 | 0.00 | 0.00 | 0.00 | 44 | 1011.2 |
| 20260509202823 | 18 | 321 | 8.0 | 9.7 | 0.00 | 0.00 | 0.00 | 44 | 1011.3 |
| 20260509202319 | 18 | 306 | 8.0 | 12.9 | 0.00 | 0.00 | 0.00 | 43 | 1011.2 |
| 20260509201818 | 19 | 264 | 6.4 | 14.5 | 0.00 | 0.00 | 0.00 | 43 | 1011.2 |
| 20260509201316 | 20 | 299 | 8.0 | 12.9 | 0.00 | 0.00 | 0.00 | 42 | 1011.0 |
| 20260509200812 | 19 | 63 | 1.6 | 4.8 | 0.00 | 0.00 | 0.00 | 41 | 1011.0 |
| 20260509200307 | 18 | 278 | 3.2 | 11.3 | 0.00 | 0.00 | 0.00 | 45 | 1011.1 |
| 20260509195804 | 18 | 278 | 11.3 | 14.5 | 0.00 | 0.00 | 0.00 | 41 | 1011.2 |
| 20260509195259 | 19 | 279 | 8.0 | 14.5 | 0.00 | 0.00 | 0.00 | 42 | 1011.4 |
| 20260509194759 | 19 | 327 | 4.8 | 12.9 | 0.00 | 0.00 | 0.00 | 42 | 1011.2 |
| 20260509194256 | 18 | 285 | 1.6 | 12.9 | 0.00 | 0.00 | 0.00 | 40 | 1011.6 |
| 20260509193753 | 19 | 179 | 8.0 | 12.9 | 0.00 | 0.00 | 0.00 | 40 | 1011.4 |
| 20260509193252 | 18 | 151 | 3.2 | 14.5 | 0.00 | 0.00 | 0.00 | 38 | 1011.4 |
| 20260509192749 | 19 | 243 | 6.4 | 17.7 | 0.00 | 0.00 | 0.00 | 41 | 1011.4 |
| 20260509192244 | 18 | 333 | 3.2 | 4.8 | 0.00 | 0.00 | 0.00 | 46 | 1011.3 |
| 20260509191740 | 18 | 273 | 4.8 | 11.3 | 0.00 | 0.00 | 0.00 | 45 | 1011.4 |
| 20260509191236 | 18 | 183 | 3.2 | 14.5 | 0.00 | 0.00 | 0.00 | 42 | 1011.4 |
| 20260509190732 | 20 | 319 | 11.3 | 14.5 | 0.00 | 0.00 | 0.00 | 41 | 1011.1 |
| 20260509190229 | 19 | 315 | 4.8 | 9.7 | 0.00 | 0.00 | 0.00 | 40 | 1011.2 |
| 20260509185727 | 20 | 260 | 3.2 | 14.5 | 0.00 | 0.00 | 0.00 | 45 | 1011.2 |
| 20260509185223 | 19 | 33 | 4.8 | 9.7 | 0.00 | 0.00 | 0.00 | 40 | 1011.3 |
| 20260509184721 | 19 | 289 | 0.0 | 4.8 | 0.00 | 0.00 | 0.00 | 45 | 1011.4 |
| 20260509184218 | 19 | 330 | 12.9 | 12.9 | 0.00 | 0.00 | 0.00 | 42 | 1011.2 |
| 20260509183714 | 19 | 284 | 9.7 | 16.1 | 0.00 | 0.00 | 0.00 | 46 | 1011.6 |
| 20260509183209 | 20 | 316 | 3.2 | 16.1 | 0.00 | 0.00 | 0.00 | 44 | 1011.3 |
| 20260509182705 | 19 | 269 | 8.0 | 14.5 | 0.00 | 0.00 | 0.00 | 44 | 1011.5 |
| 20260509182203 | 19 | 267 | 4.8 | 17.7 | 0.00 | 0.00 | 0.00 | 50 | 1011.5 |
| 20260509181700 | 19 | 287 | 9.7 | 14.5 | 0.00 | 0.00 | 0.00 | 45 | 1011.3 |
| 20260509181158 | 19 | 264 | 6.4 | 9.7 | 0.00 | 0.00 | 0.00 | 47 | 1011.2 |
| 20260509180654 | 19 | 277 | 1.6 | 4.8 | 0.00 | 0.00 | 0.00 | 47 | 1011.4 |
| 20260509180150 | 18 | 137 | 8.0 | 11.3 | 0.00 | 0.00 | 0.00 | 48 | 1011.6 |
| 20260509175647 | 18 | 134 | 0.0 | 3.2 | 0.00 | 0.00 | 0.00 | 48 | 1011.8 |
| 20260509175144 | 18 | 311 | 1.6 | 4.8 | 0.00 | 0.00 | 0.00 | 55 | 1011.8 |
| 20260509174640 | 17 | 244 | 3.2 | 4.8 | 0.00 | 0.00 | 0.00 | 54 | 1011.8 |
| 20260509174139 | 18 | 236 | 1.6 | 3.2 | 0.00 | 0.00 | 0.00 | 52 | 1011.9 |
| 20260509173636 | 17 | 265 | 3.2 | 12.9 | 0.00 | 0.00 | 0.00 | 54 | 1012.0 |
| 20260509173131 | 16 | 240 | 4.8 | 11.3 | 0.00 | 0.00 | 0.00 | 63 | 1012.3 |
| 20260509172628 | 16 | 275 | 9.7 | 14.5 | 0.00 | 0.00 | 0.00 | 58 | 1012.3 |
| 20260509172124 | 16 | 225 | 8.0 | 12.9 | 0.00 | 0.00 | 0.00 | 56 | 1012.4 |
| 20260509171620 | 16 | 310 | 4.8 | 6.4 | 0.00 | 0.00 | 0.00 | 57 | 1012.3 |
| 20260509171117 | 16 | 307 | 4.8 | 11.3 | 0.00 | 0.00 | 0.00 | 58 | 1012.5 |
| 20260509170613 | 15 | 257 | 3.2 | 6.4 | 0.00 | 0.00 | 0.00 | 57 | 1012.3 |
| 20260509170109 | 15 | 258 | 3.2 | 9.7 | 0.00 | 0.00 | 0.00 | 58 | 1012.6 |
| 20260509165608 | 15 | 209 | 1.6 | 9.7 | 0.00 | 0.00 | 0.00 | 58 | 1012.4 |
| 20260509165103 | 15 | 230 | 1.6 | 6.4 | 0.00 | 0.00 | 0.00 | 62 | 1012.6 |
| 20260509164600 | 15 | 198 | 6.4 | 6.4 | 0.00 | 0.00 | 0.00 | 58 | 1012.5 |
| 20260509164055 | 16 | 210 | 1.6 | 16.1 | 0.00 | 0.00 | 0.00 | 57 | 1012.1 |
| 20260509163554 | 16 | 245 | 0.0 | 4.8 | 0.00 | 0.00 | 0.00 | 60 | 1012.5 |
| 20260509163049 | 16 | 236 | 0.0 | 1.6 | 0.00 | 0.00 | 0.00 | 61 | 1012.6 |
| 20260509162546 | 15 | 280 | 1.6 | 3.2 | 0.00 | 0.00 | 0.00 | 57 | 1012.4 |
| 20260509162042 | 15 | 258 | 3.2 | 14.5 | 0.00 | 0.00 | 0.00 | 58 | 1012.4 |
| 20260509161539 | 16 | 141 | 0.0 | 3.2 | 0.00 | 0.00 | 0.00 | 61 | 1012.3 |
| 20260509161039 | 15 | 287 | 3.2 | 3.2 | 0.00 | 0.00 | 0.00 | 56 | 1012.4 |
| 20260509160535 | 16 | 188 | 1.6 | 3.2 | 0.00 | 0.00 | 0.00 | 57 | 1012.4 |
| 20260509160030 | 16 | 292 | 1.6 | 4.8 | 0.00 | 0.00 | 0.00 | 62 | 1012.5 |
| 20260509155526 | 15 | 212 | 0.0 | 1.6 | 0.00 | 0.00 | 0.00 | 57 | 1012.4 |
| 20260509155023 | 15 | 214 | 1.6 | 1.6 | 0.00 | 0.00 | 0.00 | 59 | 1012.3 |
| 20260509154519 | 15 | 141 | 3.2 | 4.8 | 0.00 | 0.00 | 0.00 | 58 | 1012.1 |
| 20260509154017 | 15 | 321 | 3.2 | 6.4 | 0.00 | 0.00 | 0.00 | 56 | 1012.3 |
| 20260509153514 | 15 | 301 | 0.0 | 3.2 | 0.00 | 0.00 | 0.00 | 57 | 1012.5 |
| 20260509153011 | 15 | 301 | 3.2 | 3.2 | 0.00 | 0.00 | 0.00 | 54 | 1012.6 |
| 20260509152507 | 15 | 338 | 3.2 | 6.4 | 0.00 | 0.00 | 0.00 | 55 | 1012.5 |
| 20260509152003 | 15 | 300 | 3.2 | 4.8 | 0.00 | 0.00 | 0.00 | 56 | 1012.4 |
| 20260509151500 | 15 | 304 | 3.2 | 4.8 | 0.00 | 0.00 | 0.00 | 55 | 1012.5 |
| 20260509150958 | 15 | 36 | 1.6 | 3.2 | 0.00 | 0.00 | 0.00 | 56 | 1012.4 |
| 20260509150455 | 16 | 325 | 0.0 | 1.6 | 0.00 | 0.00 | 0.00 | 53 | 1012.4 |
| 20260509145953 | 16 | 320 | 3.2 | 4.8 | 0.00 | 0.00 | 0.00 | 54 | 1012.1 |
| 20260509145448 | 16 | 59 | 1.6 | 9.7 | 0.00 | 0.00 | 0.00 | 53 | 1012.6 |
| 20260509144944 | 16 | 297 | 3.2 | 4.8 | 0.00 | 0.00 | 0.00 | 53 | 1012.0 |
| 20260509144441 | 15 | 53 | 1.6 | 6.4 | 0.00 | 0.00 | 0.00 | 53 | 1012.0 |
| 20260509143938 | 15 | 325 | 4.8 | 12.9 | 0.00 | 0.00 | 0.00 | 55 | 1012.0 |
| 20260509143436 | 15 | 327 | 1.6 | 6.4 | 0.00 | 0.00 | 0.00 | 53 | 1011.8 |
| 20260509142932 | 15 | 83 | 1.6 | 4.8 | 0.00 | 0.00 | 0.00 | 56 | 1011.9 |
| 20260509142428 | 15 | 282 | 1.6 | 4.8 | 0.00 | 0.00 | 0.00 | 55 | 1011.8 |
| 20260509141923 | 15 | 306 | 4.8 | 6.4 | 0.00 | 0.00 | 0.00 | 53 | 1011.9 |
| 20260509141421 | 15 | 200 | 4.8 | 6.4 | 0.00 | 0.00 | 0.00 | 54 | 1011.7 |
| 20260509140918 | 16 | 253 | 6.4 | 11.3 | 0.00 | 0.00 | 0.00 | 52 | 1011.7 |
| 20260509140414 | 16 | 245 | 6.4 | 9.7 | 0.00 | 0.00 | 0.00 | 56 | 1011.9 |
| 20260509135912 | 16 | 237 | 1.6 | 4.8 | 0.00 | 0.00 | 0.00 | 55 | 1011.6 |
| 20260509135409 | 16 | 190 | 1.6 | 6.4 | 0.00 | 0.00 | 0.00 | 52 | 1011.5 |
| 20260509134907 | 15 | 65 | 1.6 | 9.7 | 0.00 | 0.00 | 0.00 | 55 | 1011.7 |
| 20260509134404 | 15 | 142 | 3.2 | 4.8 | 0.00 | 0.00 | 0.00 | 57 | 1011.8 |
| 20260509133901 | 15 | 257 | 4.8 | 9.7 | 0.00 | 0.00 | 0.00 | 55 | 1011.9 |
| 20260509133357 | 15 | 192 | 1.6 | 9.7 | 0.00 | 0.00 | 0.00 | 54 | 1012.1 |
| 20260509132856 | 16 | 164 | 3.2 | 3.2 | 0.00 | 0.00 | 0.00 | 51 | 1012.3 |
| 20260509132354 | 15 | 109 | 1.6 | 9.7 | 0.00 | 0.00 | 0.00 | 56 | 1012.6 |
| 20260509131851 | 15 | 171 | 1.6 | 1.6 | 0.00 | 0.00 | 0.00 | 56 | 1012.5 |
| 20260509131347 | 14 | 28 | 6.4 | 6.4 | 0.00 | 0.00 | 0.00 | 55 | 1012.4 |
| 20260509130844 | 14 | 179 | 1.6 | 1.6 | 0.00 | 0.00 | 0.00 | 64 | 1012.6 |
| 20260509130340 | 13 | 203 | 1.6 | 1.6 | 0.00 | 0.00 | 0.00 | 62 | 1012.5 |
| 20260509125837 | 12 | 125 | 0.0 | 3.2 | 0.00 | 0.00 | 0.00 | 72 | 1012.5 |
| 20260509125333 | 12 | 292 | 0.0 | 3.2 | 0.00 | 0.00 | 0.00 | 63 | 1012.6 |
| 20260509124829 | 11 | 157 | 0.0 | 3.2 | 0.00 | 0.00 | 0.00 | 72 | 1012.7 |
| 20260509124326 | 11 | 216 | 1.6 | 4.8 | 0.00 | 0.00 | 0.00 | 70 | 1012.6 |
| 20260509123825 | 10 | 157 | 1.6 | 4.8 | 0.00 | 0.00 | 0.00 | 70 | 1012.8 |
| 20260509123321 | 10 | 216 | 1.6 | 3.2 | 0.00 | 0.00 | 0.00 | 71 | 1012.8 |
| 20260509122817 | 10 | 211 | 1.6 | 4.8 | 0.00 | 0.00 | 0.00 | 70 | 1012.8 |
| 20260509122314 | 10 | 232 | 0.0 | 1.6 | 0.00 | 0.00 | 0.00 | 77 | 1012.6 |
| 20260509121811 | 10 | 214 | 1.6 | 1.6 | 0.00 | 0.00 | 0.00 | 73 | 1012.6 |
| 20260509121308 | 10 | 192 | 1.6 | 4.8 | 0.00 | 0.00 | 0.00 | 71 | 1012.6 |
| 20260509120807 | 10 | 235 | 0.0 | 0.0 | 0.00 | 0.00 | 0.00 | 79 | 1012.6 |
| 20260509120304 | 9 | 235 | 1.6 | 3.2 | 0.00 | 0.00 | 0.00 | 79 | 1012.9 |
| 20260509115802 | 9 | 217 | 0.0 | 1.6 | 0.00 | 0.00 | 0.00 | 80 | 1012.7 |
| 20260509115258 | 9 | 217 | 0.0 | 0.0 | 0.00 | 0.00 | 0.00 | 80 | 1012.8 |
| 20260509114756 | 8 | 221 | 0.0 | 1.6 | 0.00 | 0.00 | 0.00 | 80 | 1012.7 |
| 20260509114255 | 8 | 219 | 1.6 | 1.6 | 0.00 | 0.00 | 0.00 | 80 | 1012.8 |
| 20260509113753 | 8 | 258 | 1.6 | 3.2 | 0.00 | 0.00 | 0.00 | 80 | 1013.0 |
| 20260509113250 | 8 | 113 | 1.6 | 4.8 | 0.00 | 0.00 | 0.00 | 80 | 1013.0 |
| 20260509112747 | 8 | 198 | 1.6 | 1.6 | 0.00 | 0.00 | 0.00 | 82 | 1013.0 |
| 20260509112244 | 8 | 180 | 1.6 | 1.6 | 0.00 | 0.00 | 0.00 | 78 | 1013.0 |
| 20260509111742 | 8 | 205 | 1.6 | 1.6 | 0.00 | 0.00 | 0.00 | 81 | 1012.9 |
| 20260509111238 | 8 | 219 | 3.2 | 3.2 | 0.00 | 0.00 | 0.00 | 78 | 1012.8 |
| 20260509110735 | 8 | 213 | 0.0 | 0.0 | 0.00 | 0.00 | 0.00 | 82 | 1012.8 |
| 20260509110232 | 8 | 214 | 0.0 | 1.6 | 0.00 | 0.00 | 0.00 | 82 | 1012.9 |
| 20260509105730 | 8 | 220 | 0.0 | 1.6 | 0.00 | 0.00 | 0.00 | 83 | 1012.8 |
| 20260509105227 | 8 | 221 | 1.6 | 1.6 | 0.00 | 0.00 | 0.00 | 81 | 1012.9 |
| 20260509104724 | 8 | 221 | 0.0 | 0.0 | 0.00 | 0.00 | 0.00 | 79 | 1012.7 |
| 20260509104221 | 7 | 227 | 0.0 | 1.6 | 0.00 | 0.00 | 0.00 | 80 | 1012.6 |
| 20260509103719 | 7 | 239 | 1.6 | 3.2 | 0.00 | 0.00 | 0.00 | 81 | 1012.4 |
| 20260509103216 | 7 | 208 | 0.0 | 1.6 | 0.00 | 0.00 | 0.00 | 82 | 1012.6 |
| 20260509102714 | 7 | 208 | 0.0 | 1.6 | 0.00 | 0.00 | 0.00 | 83 | 1012.7 |
| 20260509102211 | 7 | 208 | 0.0 | 1.6 | 0.00 | 0.00 | 0.00 | 82 | 1012.6 |
| 20260509101707 | 7 | 170 | 0.0 | 4.8 | 0.00 | 0.00 | 0.00 | 81 | 1012.5 |
| 20260509101204 | 7 | 219 | 1.6 | 4.8 | 0.00 | 0.00 | 0.00 | 83 | 1012.5 |
| 20260509100701 | 7 | 205 | 0.0 | 1.6 | 0.00 | 0.00 | 0.00 | 85 | 1012.6 |
| 20260509100158 | 6 | 220 | 0.0 | 0.0 | 0.00 | 0.00 | 0.00 | 87 | 1012.5 |
| 20260509095655 | 7 | 220 | 0.0 | 0.0 | 0.00 | 0.00 | 0.00 | 87 | 1012.6 |
| 20260509095152 | 7 | 220 | 0.0 | 0.0 | 0.00 | 0.00 | 0.00 | 86 | 1012.5 |
| 20260509094649 | 7 | 220 | 0.0 | 0.0 | 0.00 | 0.00 | 0.00 | 87 | 1012.7 |
| 20260509094146 | 7 | 220 | 0.0 | 0.0 | 0.00 | 0.00 | 0.00 | 87 | 1012.7 |
| 20260509093645 | 7 | 220 | 0.0 | 0.0 | 0.00 | 0.00 | 0.00 | 86 | 1012.6 |
| 20260509093141 | 7 | 220 | 0.0 | 1.6 | 0.00 | 0.00 | 0.00 | 85 | 1012.6 |
| 20260509092639 | 7 | 220 | 1.6 | 1.6 | 0.00 | 0.00 | 0.00 | 83 | 1012.8 |
| 20260509092138 | 7 | 214 | 0.0 | 1.6 | 0.00 | 0.00 | 0.00 | 81 | 1012.9 |
| 20260509091635 | 7 | 131 | 0.0 | 1.6 | 0.00 | 0.00 | 0.00 | 81 | 1012.9 |
| 20260509091130 | 7 | 163 | 0.0 | 1.6 | 0.00 | 0.00 | 0.00 | 84 | 1012.7 |
| 20260509090628 | 7 | 163 | 0.0 | 1.6 | 0.00 | 0.00 | 0.00 | 87 | 1013.0 |
| 20260509090126 | 7 | 163 | 0.0 | 0.0 | 0.00 | 0.00 | 0.00 | 85 | 1013.0 |
| 20260509085623 | 7 | 163 | 0.0 | 1.6 | 0.00 | 0.00 | 0.00 | 85 | 1013.0 |
| 20260509085119 | 7 | 163 | 0.0 | 0.0 | 0.00 | 0.00 | 0.00 | 86 | 1013.0 |
| 20260509084617 | 7 | 163 | 0.0 | 0.0 | 0.00 | 0.00 | 0.00 | 86 | 1012.9 |
| 20260509084113 | 7 | 163 | 0.0 | 0.0 | 0.00 | 0.00 | 0.00 | 86 | 1012.9 |
| 20260509083611 | 7 | 163 | 0.0 | 0.0 | 0.00 | 0.00 | 0.00 | 86 | 1012.9 |
| 20260509083107 | 7 | 163 | 0.0 | 0.0 | 0.00 | 0.00 | 0.00 | 86 | 1013.1 |
| 20260509082605 | 7 | 163 | 0.0 | 0.0 | 0.00 | 0.00 | 0.00 | 84 | 1013.1 |
| 20260509082102 | 7 | 163 | 0.0 | 0.0 | 0.00 | 0.00 | 0.00 | 83 | 1013.2 |